Location: Hokitika
(42.7170°S, 170.9670°E)
Time: 14:04:07
(UTC+13:00)

Cosmos 2227 - Pass Details

Date: 24 January 2019
Orbit: 834 x 862 km, 71.0° (Epoch: 21 February)

Event Time Altitude Azimuth Distance (km) Brightness Sun altitude
Rises 21:31:02 0° 203° (SSW) 3,443 8.4 -4.4°
Reaches altitude 10° 21:33:32 10° 200° (SSW) 2,497 7.6 -4.8°
Maximum altitude 21:39:15 69° 116° (ESE) 910 4.3 -5.7°
Drops below altitude 10° 21:44:52 10° 33° (NNE) 2,453 6.0 -6.6°
Enters shadow 21:45:59 - 31° (NNE) 2,876 6.4 -6.8°
